{"data":{"norad_id":67940,"epoch":"2026-05-25T04:50:56.380416Z","epoch_age_seconds":53490,"freshness":"FRESH","line1":"1 67940U 26037J   26145.20204144  .00014416  00000+0  53225-3 0  9994","line2":"2 67940  43.0021 118.4976 0001221 269.7507  90.3205 15.27588071 15049","mean_motion":15.27588071,"eccentricity":0.0001221,"inclination_deg":43.0021,"raan_deg":118.4976,"arg_perigee_deg":269.7507,"mean_anomaly_deg":90.3205,"bstar":0.00053225,"rev_number":1504,"period_min":94.266250655999,"perigee_km":482.18718079704,"apogee_km":483.86267654002,"semimajor_km":6861.1619286685,"source":"CELESTRAK","updated_at":"2026-05-25T13:38:21.767790Z"}}